Temperature
8 7 7 8 9 9 10 10 10 12 13 13 13 13 15 16 17 17 17 17 18 18 18 17 17 17 16 16 16 16 16 16 15 15 15 15 15 15 14 14 14 14 14 14
7 7 8 9 9 9 9 9 10 12 13 13 13 13 14 15 16 17 17 17 18 18 18 17 17 17 16 16 16 16 16 16 16 15 15 15 15 15 15 14 14 14 14 14
7 8 9 9 9 9 9 9 10 11 11 12 12 12 13 15 16 17 17 17 17 18 17 17 17 17 16 16 16 16 16 16 15 15 15 15 14 14 14 14 14 14 14 14
8 8 9 9 9 9 8 10 10 10 10 10 11 10 12 14 15 15 16 17 17 17 17 17 17 17 16 16 16 16 16 16 15 15 15 15 15 15 15 14 14 14 14 14
7 8 8 8 9 9 9 10 10 10 9 9 11 10 12 14 14 15 15 17 17 17 17 17 17 16 16 16 16 16 16 16 15 15 15 15 15 15 14 14 14 14 14 14
8 8 8 8 9 9 9 9 9 9 9 8 10 10 11 14 14 15 15 16 17 17 17 16 16 16 16 16 16 16 15 15 15 15 15 15 15 14 14 14 14 14 14 14
7 8 8 8 8 8 8 7 7 7 7 8 11 11 12 15 15 16 16 16 17 17 16 16 16 16 15 15 15 15 15 15 15 15 15 15 14 14 14 14 14 14 13 14
7 7 8 8 8 8 8 8 7 8 8 9 11 11 13 15 15 16 16 16 16 16 16 16 15 15 15 15 15 15 15 15 15 15 15 15 14 14 14 14 14 13 13 13
7 7 9 9 9 8 8 7 8 8 9 9 10 12 14 14 14 14 15 15 15 15 15 15 15 14 14 14 14 14 14 14 14 14 14 14 14 14 14 14 13 13 13 13
7 7 8 8 8 8 8 8 7 7 8 9 10 11 12 12 13 13 13 14 15 14 14 14 14 13 13 13 13 13 13 13 14 14 14 13 13 13 13 13 13 13 12 12
7 6 7 7 7 7 7 7 7 7 8 8 9 11 13 12 12 12 13 13 14 13 13 13 12 12 12 12 12 12 12 12 12 13 13 13 13 13 12 12 12 12 12 11
7 7 6 7 8 8 8 8 8 7 8 9 8 10 12 11 12 12 12 12 12 12 12 12 11 11 11 11 11 11 11 11 12 12 12 12 12 12 12 11 11 11 11 10
7 6 6 6 7 7 7 8 8 8 7 7 8 9 12 11 12 12 12 12 11 11 11 11 10 10 10 10 10 10 10 10 11 11 11 11 11 11 11 11 10 10 10 9
7 6 6 6 7 7 7 8 8 7 6 7 8 10 11 11 11 11 11 11 11 11 10 10 10 9 9 9 9 9 9 10 10 10 10 10 10 10 10 9 9 9 9 9
6 6 6 7 8 8 8 8 8 7 7 7 8 10 10 11 11 11 11 11 11 10 10 10 9 9 9 9 8 9 9 9 9 9 9 9 9 9 9 9 8 8 8 8
5 5 5 6 8 8 8 8 8 8 8 8 8 9 10 11 11 11 11 11 10 10 10 10 9 9 9 9 9 9 9 9 9 9 9 9 9 8 8 8 7 7 7 7
5 5 5 6 8 7 6 8 8 8 8 8 8 9 10 10 10 10 11 10 10 10 10 10 9 9 9 9 9 9 9 9 9 9 8 8 8 8 7 7 6 6 6 5
5 5 5 5 6 5 8 9 9 9 9 9 9 9 9 9 10 10 10 10 10 10 9 10 9 9 9 9 9 9 9 9 8 8 8 8 7 7 6 6 6 5 5 4
5 5 5 5 5 6 8 8 8 8 8 9 9 9 9 9 9 9 9 9 9 9 9 9 9 9 9 8 8 8 8 8 8 8 8 7 7 6 6 5 5 4 4 3
6 5 4 5 5 6 6 7 8 8 7 7 8 8 8 8 7 7 7 8 8 8 8 8 8 8 8 8 8 8 8 8 8 8 7 7 6 6 5 5 4 3 3 3
5 5 4 5 5 6 6 7 7 6 6 6 7 7 7 7 6 6 7 7 7 7 7 8 8 8 8 8 8 8 8 8 7 7 6 6 6 5 4 4 3 3 2 2
4 4 4 5 5 5 5 6 5 5 5 6 6 6 6 6 6 6 6 6 6 6 7 7 7 7 7 7 7 7 7 7 7 6 6 6 5 5 4 3 3 2 2 1
4 4 4 4 4 5 5 5 5 5 5 5 5 5 5 5 5 5 5 5 5 6 6 6 6 6 6 6 6 7 7 6 6 6 6 5 4 4 3 3 2 2 1 1
4 4 4 4 5 5 5 4 4 4 4 4 4 4 5 4 4 4 4 5 5 5 5 5 6 6 6 6 6 6 6 6 6 5 5 4 4 3 3 2 2 1 1 0
3 3 3 3 4 4 4 3 3 3 3 3 3 4 4 4 4 4 4 4 4 4 5 5 5 5 5 5 5 5 5 5 5 4 4 4 3 2 2 2 1 1 0 0
3 2 2 2 2 2 2 2 2 2 3 3 3 3 3 3 3 4 4 4 4 4 4 4 4 4 4 4 4 4 4 4 4 4 3 3 2 2 1 1 1 0 0 -0
Wind_Speed
2 2 4 5 7 6 4 6 8 8 6 10 12 12 10 9 9 10 10 9 9 9 8 8 9 8 7 7 8 9 9 9 7 6 6 5 5 4 3 4 7 9 9 10
2 3 4 4 5 6 5 6 7 5 5 7 9 12 10 9 9 9 10 10 10 9 8 8 9 8 8 8 8 8 9 9 9 7 6 5 5 4 4 4 6 7 7 7
2 1 2 3 3 4 5 6 6 4 3 6 5 8 12 11 11 10 10 10 9 10 10 10 9 9 8 8 8 8 8 8 8 8 6 5 4 3 3 4 4 5 7 7
1 1 3 3 3 3 3 3 3 4 3 4 7 5 11 14 14 14 12 11 10 9 9 9 10 10 9 7 7 7 7 7 8 8 8 7 6 5 5 4 4 4 5 4
1 1 2 4 4 4 1 2 2 4 4 3 6 5 6 12 14 16 14 13 11 10 9 8 9 10 9 8 7 6 7 7 7 8 9 8 6 5 4 4 5 5 4 5
3 2 2 2 2 2 1 1 1 2 2 5 9 8 6 9 15 15 14 14 13 12 10 8 8 9 8 7 6 6 6 6 6 7 7 7 8 7 6 6 5 5 4 3
2 4 3 1 2 3 3 3 2 3 4 6 9 8 7 6 7 8 10 11 11 10 10 9 9 9 9 9 7 6 6 6 6 6 6 6 6 7 7 6 5 5 4 3
2 3 6 4 4 3 5 4 2 3 4 4 6 8 5 3 3 2 1 3 4 5 6 8 9 9 10 10 9 8 7 7 6 6 6 5 5 4 4 5 4 4 3 3
2 1 5 5 3 2 3 5 3 3 4 2 5 5 4 4 4 3 3 4 4 5 6 6 7 8 9 10 9 8 8 7 7 6 6 6 5 5 5 5 5 4 4 4
3 2 3 4 3 3 2 2 2 3 2 3 6 7 5 7 6 5 3 4 5 3 4 6 6 6 7 8 8 8 8 7 7 6 6 6 6 6 6 5 5 5 4 4
3 2 3 5 7 7 6 4 4 4 4 2 2 0 3 4 4 4 4 3 3 4 3 4 5 6 7 7 8 7 7 7 7 7 7 7 6 6 6 5 5 5 4 4
3 2 3 5 4 5 7 7 6 3 3 3 2 1 2 6 5 5 5 4 5 5 4 5 6 7 7 7 7 7 7 7 7 7 7 7 7 7 6 6 6 5 5 4
3 2 2 2 3 4 5 8 8 5 3 3 3 2 2 5 4 4 4 4 4 4 4 5 6 7 7 7 7 8 8 8 7 8 8 7 7 6 6 6 6 5 5 4
4 3 4 4 2 3 4 7 8 6 4 5 6 4 2 1 2 1 2 2 3 3 5 5 6 6 7 7 8 8 8 8 8 8 8 8 7 7 7 6 6 5 5 4
3 4 6 10 9 6 5 7 9 9 8 6 5 6 4 3 1 1 0 1 2 2 4 6 6 6 7 8 8 8 8 8 8 8 8 7 7 7 7 6 5 5 4 4
3 4 6 7 8 7 7 8 9 10 10 10 10 10 6 5 3 3 3 2 2 3 4 5 6 7 8 9 9 9 9 8 8 8 8 8 8 7 7 6 5 5 4 4
3 3 4 5 5 3 5 7 9 8 7 8 9 8 6 6 5 4 3 3 4 4 4 5 6 6 7 8 9 10 9 9 9 8 8 8 8 7 7 6 6 5 4 4
5 4 3 4 3 3 2 2 2 6 6 6 6 6 5 5 5 5 4 3 4 3 3 3 4 5 6 7 8 9 9 9 9 8 8 8 8 8 7 6 6 5 4 4
6 4 3 3 3 3 1 2 3 1 2 4 4 6 5 4 4 3 5 4 4 3 1 1 2 3 5 7 9 10 9 9 9 8 9 9 9 8 8 7 6 5 4 4
3 4 3 4 3 1 3 5 6 2 1 7 7 7 6 4 3 2 6 6 6 5 3 2 2 3 5 6 8 9 9 9 9 9 9 8 9 9 8 7 6 5 5 4
2 2 4 5 3 1 5 6 4 2 3 8 8 8 7 4 2 3 5 6 5 5 4 3 3 3 4 5 7 8 8 8 8 8 8 8 8 8 8 7 6 6 5 5
2 2 2 3 2 1 7 5 4 4 6 7 8 8 7 5 5 5 5 5 5 5 5 5 4 4 3 4 6 6 6 6 7 8 8 8 8 7 7 7 6 6 6 6
1 1 2 2 2 3 3 3 5 6 7 7 8 8 7 6 5 5 4 4 4 5 5 4 4 4 4 3 4 5 5 6 7 8 7 7 7 7 7 7 7 6 6 5
3 3 3 4 3 4 4 5 7 8 8 8 8 7 7 5 5 4 4 3 3 4 4 4 4 4 3 3 3 4 5 6 7 7 7 7 7 7 7 6 6 6 7 6
4 3 4 4 5 6 5 8 10 10 9 9 8 6 6 5 4 3 3 3 2 3 3 3 3 3 2 2 2 3 4 6 6 6 6 7 6 7 6 6 6 7 7 7
1 1 3 3 5 6 9 10 11 10 10 9 9 7 5 4 4 3 3 2 2 2 2 3 3 2 2 2 2 3 3 4 5 5 6 5 5 5 5 6 5 7 7 10
Wind_Direction
191 201 211 213 221 249 241 229 225 220 203 210 222 230 231 225 207 212 218 218 212 206 198 176 165 164 164 169 169 169 171 174 169 166 171 172 181 172 164 164 172 179 181 185
197 226 231 239 240 253 243 239 223 213 207 217 234 237 234 233 218 214 218 221 215 205 198 177 165 162 166 172 175 170 173 173 170 171 173 171 168 169 170 164 177 182 181 183
229 233 221 238 229 213 229 232 226 218 199 226 246 251 237 234 233 226 223 223 220 208 200 182 170 166 167 172 175 174 173 171 169 164 157 151 151 154 167 176 179 183 181 183
280 259 225 225 225 213 238 261 236 222 194 215 206 239 227 219 219 221 220 218 221 217 210 187 172 170 172 174 168 171 170 166 165 160 161 163 167 177 183 174 173 162 164 164
241 186 208 223 226 214 254 310 241 224 229 256 216 234 248 212 211 213 213 213 214 212 205 189 174 169 168 164 162 167 165 167 167 166 168 173 172 175 164 154 156 161 155 149
246 226 249 249 251 223 189 249 232 249 244 245 219 219 254 217 207 204 205 208 208 205 198 187 169 157 154 150 151 159 164 167 165 165 168 176 176 167 162 162 164 164 156 150
213 195 190 212 188 196 207 171 162 191 210 234 204 209 242 235 204 195 194 201 203 197 185 175 166 160 154 152 158 160 161 166 162 161 166 170 168 165 167 164 166 160 155 145
228 199 183 192 209 195 205 210 210 211 207 221 191 214 235 209 140 135 157 183 186 183 171 172 171 166 163 162 163 165 165 165 160 154 154 141 139 144 143 135 128 130 126 126
283 205 152 174 197 214 193 219 249 294 279 231 212 227 220 142 137 158 187 203 211 197 180 174 165 164 162 161 163 162 161 159 153 145 134 127 128 127 124 119 114 114 113 121
310 282 183 164 181 226 250 278 225 229 248 235 216 215 213 175 173 169 186 194 191 172 163 164 160 156 155 154 152 152 153 151 142 138 132 128 126 123 119 117 117 115 109 105
257 254 189 178 201 198 189 211 232 239 263 260 229 243 24 115 116 124 125 107 120 133 135 136 139 136 134 135 137 139 140 135 132 129 123 119 114 107 106 109 108 107 107 111
243 253 241 218 206 211 212 211 213 226 254 260 284 289 33 76 81 87 92 95 96 105 118 128 129 131 134 140 145 143 141 136 134 128 122 120 113 109 108 106 101 99 100 97
308 260 262 218 201 205 227 224 226 241 277 262 248 227 101 102 97 92 94 105 109 121 132 141 144 149 154 154 151 145 140 135 131 129 128 126 123 119 115 109 104 100 96 92
320 267 257 272 279 201 216 222 222 221 228 244 238 244 240 98 100 107 118 136 137 149 157 161 160 162 159 157 153 148 143 140 138 135 135 132 129 123 117 111 107 103 101 101
313 280 280 284 282 262 242 235 227 226 232 243 265 273 286 316 314 316 293 189 163 178 179 177 173 170 165 160 154 150 146 144 141 137 135 131 124 117 115 114 111 106 101 101
321 296 302 285 268 260 260 249 240 237 239 250 270 277 288 303 319 318 308 295 274 246 218 192 183 179 172 168 163 154 152 150 145 142 139 133 129 128 129 129 128 124 118 115
283 298 305 285 294 287 265 246 232 231 233 239 253 265 292 300 301 298 289 273 258 248 234 205 192 186 177 171 163 160 156 148 147 146 144 143 141 140 141 140 137 136 133 123
256 278 275 285 299 248 265 5 247 237 250 249 262 282 293 303 310 321 325 310 290 268 244 212 196 186 172 161 154 149 147 149 151 151 151 150 147 148 146 143 143 139 129 129
227 251 276 278 269 254 284 10 0 304 322 349 316 318 321 319 316 345 5 359 338 318 282 201 176 168 154 149 148 145 148 151 155 160 160 158 156 154 153 154 154 145 140 143
226 228 259 277 284 286 17 352 340 327 351 10 1 350 349 354 329 341 8 11 9 5 10 42 74 104 129 138 140 146 155 160 170 170 164 159 158 157 159 161 157 150 151 158
314 253 243 263 266 307 355 332 340 3 355 354 358 358 4 359 339 335 2 17 16 16 22 33 67 94 118 131 138 152 159 172 168 154 151 152 154 156 156 154 153 152 154 158
309 310 302 300 273 313 359 3 20 347 340 352 359 357 356 350 350 2 13 18 20 27 29 37 59 69 82 115 135 149 159 150 138 140 146 151 152 154 156 154 156 158 160 167
339 349 309 291 288 329 360 5 352 352 346 348 348 344 344 343 349 3 15 19 30 38 36 44 67 69 66 88 122 142 145 135 137 142 150 153 153 154 159 164 166 168 175 182
335 359 298 289 295 339 354 3 360 355 343 337 339 336 339 338 347 359 6 14 28 34 33 38 68 82 71 70 93 128 138 142 146 155 160 161 163 164 168 171 175 180 188 191
292 313 300 285 322 341 356 358 347 338 334 333 335 335 337 337 343 350 353 5 23 35 29 29 48 78 87 89 97 123 138 146 156 164 167 168 172 173 179 185 192 195 200 196
237 314 314 306 342 322 313 326 330 328 329 330 328 326 332 333 329 340 348 5 27 40 41 39 39 53 74 92 110 123 142 157 164 171 173 176 178 181 183 187 199 211 209 213
Height
1484 1486 1485 1484 1483 1483 1483 1484 1484 1481 1478 1482 1484 1484 1482 1480 1481 1484 1486 1489 1491 1494 1498 1501 1504 1507 1510 1514 1517 1520 1523 1526 1530 1533 1536 1539 1542 1545 1548 1550 1552 1554 1556 1557
1485 1485 1483 1482 1482 1483 1484 1486 1484 1481 1479 1482 1483 1482 1479 1478 1479 1481 1483 1485 1488 1491 1494 1497 1500 1503 1507 1510 1514 1517 1520 1523 1526 1529 1532 1536 1539 1542 1545 1547 1549 1551 1553 1554
1483 1483 1482 1482 1482 1483 1484 1485 1484 1483 1482 1482 1484 1485 1479 1477 1477 1478 1480 1482 1485 1487 1490 1493 1496 1500 1503 1507 1510 1513 1516 1520 1523 1526 1529 1532 1536 1539 1541 1543 1545 1547 1549 1551
1483 1482 1482 1483 1483 1484 1486 1482 1483 1484 1487 1488 1487 1491 1477 1473 1473 1474 1475 1478 1481 1484 1487 1489 1492 1496 1499 1503 1507 1510 1513 1516 1519 1522 1525 1528 1530 1533 1536 1539 1541 1543 1545 1547
1484 1483 1483 1484 1483 1483 1485 1483 1484 1486 1488 1489 1485 1488 1476 1466 1468 1468 1470 1473 1476 1480 1483 1486 1488 1492 1495 1499 1503 1507 1510 1513 1516 1519 1521 1524 1527 1530 1533 1535 1537 1539 1541 1542
1483 1483 1483 1483 1482 1483 1485 1486 1486 1486 1489 1493 1482 1484 1477 1463 1460 1461 1464 1467 1471 1475 1479 1482 1485 1488 1491 1495 1498 1502 1506 1509 1512 1515 1518 1520 1523 1526 1528 1531 1532 1534 1536 1538
1482 1482 1483 1484 1484 1485 1486 1490 1495 1495 1496 1488 1472 1475 1470 1454 1451 1454 1458 1462 1466 1470 1474 1477 1480 1484 1487 1490 1494 1498 1501 1505 1508 1511 1514 1517 1520 1522 1524 1527 1529 1531 1532 1533
1484 1484 1482 1482 1483 1484 1485 1488 1492 1492 1489 1478 1468 1470 1461 1450 1450 1452 1456 1459 1462 1466 1469 1473 1476 1480 1483 1486 1490 1493 1497 1500 1504 1507 1509 1512 1515 1518 1520 1522 1524 1526 1527 1528
1482 1482 1479 1480 1481 1483 1485 1486 1484 1487 1480 1479 1472 1461 1454 1450 1451 1453 1455 1458 1460 1463 1466 1470 1473 1476 1479 1482 1486 1489 1493 1496 1499 1502 1505 1508 1511 1513 1516 1518 1520 1522 1523 1524
1483 1484 1480 1481 1483 1483 1484 1484 1486 1488 1483 1478 1468 1462 1458 1453 1453 1453 1455 1457 1459 1462 1465 1468 1471 1474 1476 1479 1482 1486 1489 1492 1495 1498 1501 1504 1507 1510 1512 1514 1516 1517 1518 1520
1482 1485 1482 1482 1482 1481 1484 1485 1483 1482 1479 1479 1474 1467 1451 1452 1452 1454 1455 1457 1459 1461 1463 1466 1468 1471 1474 1476 1479 1482 1485 1488 1491 1494 1497 1500 1502 1505 1508 1509 1511 1512 1513 1515
1481 1482 1481 1477 1474 1475 1476 1478 1480 1483 1478 1473 1475 1472 1453 1453 1453 1454 1456 1458 1460 1461 1463 1465 1467 1469 1471 1474 1476 1479 1482 1485 1488 1491 1493 1496 1498 1501 1503 1505 1506 1507 1509 1510
1481 1482 1482 1478 1479 1477 1475 1474 1474 1476 1478 1476 1476 1472 1456 1455 1455 1456 1457 1459 1460 1462 1463 1464 1466 1468 1470 1472 1474 1477 1479 1482 1485 1488 1490 1493 1495 1497 1499 1501 1502 1503 1504 1505
1481 1481 1482 1477 1472 1472 1473 1471 1471 1475 1479 1475 1470 1465 1459 1457 1457 1458 1458 1459 1460 1461 1462 1464 1465 1467 1468 1470 1472 1474 1477 1480 1482 1485 1487 1489 1491 1493 1495 1497 1498 1499 1500 1501
1482 1481 1477 1473 1468 1467 1468 1468 1468 1471 1471 1472 1466 1462 1459 1458 1458 1458 1458 1459 1460 1461 1461 1462 1463 1465 1466 1468 1470 1472 1475 1477 1480 1482 1485 1487 1489 1491 1492 1494 1495 1495 1496 1497
1483 1482 1478 1472 1465 1465 1465 1464 1464 1465 1465 1465 1464 1462 1458 1457 1457 1457 1457 1458 1458 1459 1460 1461 1461 1463 1464 1466 1468 1470 1472 1475 1478 1480 1482 1484 1486 1488 1489 1490 1491 1492 1493 1493
1484 1483 1480 1473 1464 1464 1467 1460 1459 1460 1459 1461 1462 1460 1457 1457 1456 1456 1456 1456 1457 1457 1458 1458 1459 1460 1462 1463 1465 1467 1470 1473 1475 1477 1479 1481 1483 1485 1486 1487 1488 1488 1489 1489
1483 1481 1480 1475 1471 1473 1463 1455 1454 1455 1456 1456 1456 1456 1455 1455 1455 1454 1454 1454 1454 1455 1455 1455 1456 1457 1459 1461 1463 1465 1468 1470 1472 1475 1477 1478 1480 1482 1483 1484 1484 1485 1485 1486
1479 1480 1479 1476 1472 1465 1459 1457 1456 1457 1457 1456 1455 1454 1454 1454 1453 1453 1453 1453 1452 1452 1452 1453 1453 1454 1456 1458 1460 1462 1465 1467 1470 1472 1474 1475 1477 1478 1479 1480 1481 1481 1482 1483
1476 1477 1480 1476 1472 1468 1466 1460 1457 1458 1460 1459 1457 1455 1454 1453 1456 1455 1453 1451 1451 1450 1450 1450 1451 1452 1454 1456 1458 1460 1462 1464 1466 1469 1471 1472 1474 1475 1476 1477 1477 1478 1479 1479
1478 1477 1478 1475 1471 1467 1467 1462 1459 1464 1466 1462 1460 1458 1456 1456 1457 1456 1453 1451 1449 1449 1448 1448 1449 1450 1452 1453 1455 1457 1459 1461 1464 1466 1467 1469 1470 1471 1472 1473 1474 1475 1475 1476
1480 1479 1477 1475 1472 1473 1469 1465 1467 1469 1465 1463 1461 1459 1458 1456 1455 1453 1452 1450 1449 1448 1448 1447 1448 1449 1450 1452 1453 1455 1457 1459 1461 1462 1464 1465 1467 1468 1469 1470 1470 1471 1472 1473
1479 1481 1480 1479 1477 1473 1470 1470 1469 1467 1465 1463 1461 1459 1457 1456 1454 1453 1452 1450 1449 1448 1448 1447 1447 1448 1449 1450 1452 1453 1455 1456 1458 1459 1460 1462 1463 1464 1465 1466 1467 1468 1468 1469
1480 1479 1478 1476 1472 1471 1470 1469 1468 1467 1465 1463 1461 1459 1457 1455 1454 1452 1451 1450 1449 1448 1448 1447 1447 1447 1448 1449 1450 1451 1452 1454 1455 1456 1457 1458 1459 1460 1461 1462 1463 1464 1464 1465
1483 1481 1479 1476 1473 1471 1469 1470 1468 1465 1463 1461 1459 1457 1456 1454 1453 1452 1451 1450 1449 1448 1447 1447 1447 1447 1447 1447 1448 1449 1450 1451 1452 1453 1454 1455 1456 1457 1458 1459 1459 1460 1461 1462
1481 1481 1481 1478 1477 1476 1472 1469 1467 1464 1462 1460 1458 1455 1454 1453 1452 1450 1449 1449 1448 1447 1447 1446 1446 1446 1446 1446 1446 1447 1447 1448 1449 1450 1450 1451 1452 1453 1454 1455 1455 1456 1457 1458